QPF
0.01 0.00 0.00 0.00 0.00 0.00 0.00 0.00 0.00 0.00 0.00 0.01 0.01 0.00 0.00 0.00 0.00 0.00 0.00 0.00 0.00 0.00 0.00 0.00 0.00 0.00 0.00 0.00 0.00 0.00 0.00 0.00 0.00 0.00 0.00 0.01 0.01 0.00 0.00 0.00 0.03 0.18 0.09
0.00 0.00 0.00 0.00 0.01 0.02 0.02 0.01 0.00 0.01 0.00 0.01 0.03 0.05 0.00 0.00 0.00 0.00 0.00 0.00 0.00 0.00 0.00 0.00 0.00 0.00 0.00 0.00 0.00 0.00 0.00 0.00 0.00 0.00 0.00 0.00 0.01 0.04 0.00 0.01 0.07 0.13 0.02
0.00 0.00 0.00 0.03 0.03 0.06 0.03 0.00 0.00 0.01 0.02 0.04 0.09 0.05 0.03 0.00 0.00 0.00 0.01 0.00 0.00 0.00 0.01 0.00 0.00 0.00 0.00 0.00 0.00 0.00 0.00 0.00 0.00 0.00 0.00 0.00 0.00 0.05 0.02 0.01 0.13 0.04 0.01
0.01 0.01 0.00 0.03 0.03 0.08 0.01 0.00 0.00 0.02 0.01 0.04 0.07 0.05 0.02 0.00 0.00 0.00 0.01 0.00 0.00 0.00 0.00 0.00 0.00 0.00 0.00 0.00 0.00 0.00 0.00 0.00 0.00 0.00 0.00 0.00 0.00 0.00 0.02 0.02 0.11 0.07 0.01
0.10 0.06 0.04 0.03 0.05 0.02 0.00 0.00 0.00 0.02 0.01 0.03 0.09 0.04 0.00 0.00 0.00 0.00 0.00 0.00 0.00 0.00 0.00 0.00 0.00 0.00 0.00 0.00 0.00 0.00 0.00 0.00 0.00 0.00 0.00 0.00 0.00 0.00 0.00 0.01 0.02 0.01 0.00
0.06 0.06 0.10 0.01 0.01 0.02 0.00 0.00 0.00 0.00 0.00 0.00 0.00 0.00 0.00 0.00 0.00 0.00 0.00 0.00 0.01 0.01 0.00 0.00 0.00 0.00 0.00 0.00 0.00 0.00 0.00 0.00 0.00 0.00 0.00 0.00 0.00 0.02 0.00 0.00 0.00 0.00 0.00
0.35 0.19 0.13 0.02 0.02 0.03 0.01 0.00 0.00 0.00 0.00 0.00 0.00 0.00 0.00 0.00 0.00 0.00 0.00 0.00 0.00 0.01 0.01 0.00 0.00 0.00 0.00 0.00 0.00 0.00 0.00 0.00 0.00 0.00 0.00 0.00 0.00 0.06 0.09 0.00 0.00 0.00 0.00
0.40 0.28 0.32 0.29 0.21 0.09 0.03 0.02 0.01 0.00 0.00 0.00 0.00 0.00 0.00 0.00 0.00 0.00 0.00 0.00 0.00 0.00 0.00 0.00 0.00 0.00 0.00 0.00 0.00 0.00 0.00 0.00 0.00 0.00 0.00 0.00 0.00 0.00 0.09 0.09 0.03 0.00 0.00
0.29 0.20 0.11 0.13 0.17 0.19 0.14 0.03 0.01 0.01 0.01 0.02 0.03 0.01 0.00 0.00 0.00 0.00 0.00 0.00 0.00 0.00 0.00 0.00 0.00 0.00 0.00 0.00 0.00 0.00 0.00 0.00 0.00 0.00 0.00 0.00 0.00 0.00 0.02 0.08 0.13 0.03 0.00
0.03 0.09 0.06 0.13 0.15 0.15 0.13 0.02 0.01 0.01 0.01 0.01 0.01 0.00 0.00 0.00 0.00 0.00 0.00 0.00 0.00 0.01 0.01 0.02 0.01 0.01 0.01 0.00 0.00 0.00 0.00 0.00 0.00 0.00 0.00 0.00 0.00 0.00 0.00 0.04 0.11 0.13 0.07
0.00 0.02 0.08 0.16 0.14 0.09 0.03 0.00 0.00 0.00 0.00 0.00 0.00 0.00 0.00 0.00 0.00 0.00 0.00 0.00 0.00 0.00 0.00 0.01 0.02 0.01 0.01 0.01 0.00 0.00 0.00 0.00 0.00 0.00 0.00 0.00 0.00 0.00 0.00 0.00 0.05 0.10 0.08
0.00 0.00 0.02 0.13 0.07 0.08 0.08 0.04 0.00 0.04 0.05 0.02 0.00 0.00 0.00 0.00 0.00 0.00 0.01 0.00 0.00 0.00 0.00 0.00 0.01 0.00 0.00 0.00 0.00 0.00 0.00 0.00 0.00 0.00 0.00 0.00 0.00 0.00 0.00 0.00 0.00 0.02 0.08
0.00 0.00 0.00 0.00 0.00 0.01 0.01 0.01 0.00 0.00 0.00 0.07 0.05 0.02 0.00 0.00 0.00 0.00 0.00 0.00 0.00 0.00 0.00 0.01 0.03 0.02 0.01 0.00 0.00 0.00 0.00 0.00 0.00 0.00 0.00 0.00 0.00 0.00 0.00 0.00 0.00 0.00 0.01
0.00 0.00 0.00 0.00 0.00 0.00 0.00 0.00 0.00 0.00 0.00 0.06 0.15 0.05 0.00 0.01 0.00 0.00 0.00 0.00 0.00 0.00 0.00 0.00 0.01 0.00 0.00 0.00 0.00 0.00 0.00 0.00 0.00 0.00 0.00 0.00 0.00 0.00 0.00 0.00 0.00 0.00 0.01
0.00 0.00 0.00 0.00 0.00 0.00 0.00 0.00 0.00 0.00 0.00 0.00 0.00 0.01 0.00 0.00 0.00 0.00 0.00 0.00 0.00 0.00 0.00 0.00 0.00 0.00 0.00 0.00 0.00 0.00 0.00 0.00 0.00 0.00 0.00 0.00 0.00 0.00 0.00 0.00 0.00 0.00 0.00
0.00 0.00 0.00 0.00 0.00 0.00 0.00 0.00 0.00 0.00 0.00 0.00 0.00 0.00 0.00 0.00 0.00 0.00 0.00 0.00 0.00 0.00 0.00 0.00 0.00 0.00 0.00 0.00 0.00 0.00 0.00 0.00 0.00 0.00 0.00 0.00 0.00 0.00 0.00 0.00 0.00 0.00 0.00
0.00 0.00 0.00 0.00 0.00 0.00 0.00 0.00 0.00 0.00 0.00 0.00 0.00 0.00 0.00 0.00 0.00 0.00 0.00 0.00 0.00 0.00 0.00 0.00 0.00 0.00 0.00 0.00 0.00 0.00 0.00 0.00 0.00 0.00 0.00 0.00 0.00 0.00 0.00 0.00 0.00 0.00 0.00
0.00 0.00 0.00 0.00 0.00 0.00 0.00 0.00 0.00 0.00 0.00 0.00 0.00 0.00 0.00 0.00 0.00 0.00 0.00 0.00 0.00 0.00 0.00 0.00 0.00 0.00 0.00 0.00 0.00 0.00 0.00 0.00 0.00 0.00 0.00 0.00 0.00 0.00 0.00 0.00 0.00 0.00 0.00
0.00 0.00 0.00 0.00 0.00 0.00 0.00 0.00 0.00 0.00 0.00 0.00 0.00 0.00 0.00 0.00 0.00 0.00 0.00 0.00 0.00 0.00 0.00 0.00 0.00 0.00 0.00 0.00 0.00 0.00 0.00 0.00 0.00 0.00 0.00 0.00 0.00 0.00 0.00 0.00 0.00 0.00 0.00
0.00 0.00 0.00 0.00 0.00 0.00 0.00 0.00 0.00 0.00 0.00 0.00 0.00 0.00 0.00 0.00 0.00 0.00 0.00 0.00 0.00 0.00 0.00 0.00 0.00 0.00 0.00 0.00 0.00 0.00 0.00 0.00 0.00 0.00 0.00 0.00 0.00 0.00 0.00 0.00 0.00 0.00 0.00
0.00 0.00 0.00 0.00 0.00 0.00 0.00 0.00 0.00 0.00 0.00 0.00 0.00 0.00 0.00 0.00 0.00 0.00 0.00 0.00 0.00 0.00 0.00 0.00 0.00 0.00 0.00 0.00 0.00 0.00 0.00 0.00 0.00 0.00 0.00 0.00 0.00 0.00 0.00 0.00 0.00 0.00 0.00
0.00 0.00 0.00 0.00 0.00 0.00 0.00 0.00 0.00 0.00 0.00 0.00 0.00 0.00 0.00 0.00 0.00 0.00 0.00 0.00 0.00 0.00 0.00 0.00 0.00 0.00 0.00 0.00 0.00 0.00 0.00 0.00 0.00 0.00 0.00 0.00 0.00 0.00 0.00 0.00 0.00 0.00 0.00
0.00 0.00 0.00 0.00 0.00 0.00 0.00 0.00 0.00 0.00 0.00 0.00 0.00 0.00 0.00 0.00 0.00 0.00 0.00 0.00 0.00 0.00 0.00 0.00 0.00 0.00 0.00 0.00 0.00 0.00 0.00 0.00 0.00 0.00 0.00 0.00 0.00 0.00 0.00 0.00 0.00 0.00 0.00
0.00 0.00 0.00 0.00 0.00 0.00 0.00 0.00 0.00 0.00 0.00 0.00 0.00 0.00 0.00 0.00 0.00 0.00 0.00 0.00 0.00 0.00 0.00 0.00 0.00 0.00 0.00 0.00 0.00 0.00 0.00 0.00 0.00 0.00 0.00 0.00 0.00 0.00 0.00 0.00 0.00 0.00 0.00
0.00 0.00 0.00 0.00 0.00 0.00 0.00 0.00 0.00 0.00 0.00 0.00 0.00 0.00 0.00 0.00 0.00 0.00 0.00 0.00 0.00 0.00 0.00 0.00 0.00 0.00 0.00 0.00 0.00 0.00 0.00 0.00 0.00 0.00 0.00 0.00 0.00 0.00 0.00 0.00 0.00 0.00 0.00
0.00 0.00 0.00 0.00 0.00 0.00 0.00 0.00 0.00 0.00 0.00 0.00 0.00 0.00 0.00 0.00 0.00 0.00 0.00 0.00 0.00 0.00 0.00 0.00 0.00 0.00 0.00 0.00 0.00 0.00 0.00 0.00 0.00 0.00 0.00 0.00 0.00 0.00 0.00 0.00 0.00 0.00 0.00
MSLP
1013.39 1013.27 1013.33 1013.37 1013.43 1013.57 1013.68 1013.76 1013.89 1014.02 1014.17 1014.35 1014.57 1014.76 1014.92 1015.06 1015.26 1015.33 1015.47 1015.59 1015.64 1015.70 1015.79 1015.83 1015.84 1015.88 1015.83 1015.96 1015.95 1015.95 1015.97 1015.98 1015.99 1015.99 1015.91 1015.82 1015.76 1015.71 1015.73 1015.75 1015.71 1015.71 1015.81
1012.68 1012.98 1013.35 1013.38 1013.40 1013.51 1013.71 1013.92 1014.03 1014.13 1014.33 1014.50 1014.69 1014.97 1015.10 1015.23 1015.39 1015.51 1015.61 1015.77 1015.81 1015.90 1015.99 1016.07 1016.24 1016.25 1016.29 1016.36 1016.33 1016.31 1016.33 1016.37 1016.40 1016.41 1016.33 1016.26 1016.04 1016.04 1015.97 1016.01 1016.01 1015.94 1016.16
1013.07 1013.10 1013.14 1013.42 1013.58 1013.65 1013.82 1014.00 1014.20 1014.36 1014.55 1014.76 1014.96 1015.00 1015.25 1015.42 1015.46 1015.63 1015.77 1015.96 1016.01 1016.11 1016.17 1016.36 1016.48 1016.61 1016.63 1016.71 1016.70 1016.65 1016.63 1016.67 1016.68 1016.66 1016.67 1016.63 1016.47 1016.36 1016.30 1016.36 1016.37 1016.41 1016.53
1013.31 1013.48 1013.42 1013.34 1013.53 1013.86 1013.96 1014.09 1014.27 1014.51 1014.79 1014.92 1015.03 1015.18 1015.37 1015.55 1015.69 1015.79 1015.92 1016.13 1016.28 1016.40 1016.52 1016.68 1016.78 1016.90 1016.97 1016.97 1016.98 1016.97 1016.92 1016.85 1016.77 1016.72 1016.88 1016.88 1016.74 1016.63 1016.63 1016.67 1016.64 1016.69 1016.71
1013.68 1013.80 1013.63 1013.65 1013.65 1013.81 1014.13 1014.19 1014.39 1014.60 1014.82 1015.04 1015.33 1015.41 1015.57 1015.64 1015.85 1015.91 1016.16 1016.25 1016.53 1016.71 1016.75 1016.87 1016.97 1017.04 1017.10 1017.14 1017.15 1017.24 1017.21 1017.15 1017.09 1016.88 1017.02 1017.11 1017.08 1016.90 1016.84 1016.90 1016.95 1017.09 1017.18
1013.90 1013.93 1014.07 1014.08 1014.05 1014.03 1014.24 1014.56 1014.63 1014.74 1014.98 1015.08 1015.31 1015.53 1015.65 1015.83 1016.02 1016.11 1016.32 1016.46 1016.65 1016.81 1016.90 1017.06 1017.09 1017.09 1017.15 1017.22 1017.29 1017.42 1017.47 1017.36 1017.32 1017.38 1017.36 1017.29 1017.27 1017.06 1017.06 1017.23 1017.28 1017.37 1017.46
1014.24 1014.27 1014.07 1014.37 1014.39 1014.64 1014.57 1014.60 1014.73 1014.88 1015.11 1015.22 1015.28 1015.53 1015.74 1015.93 1016.05 1016.21 1016.32 1016.46 1016.65 1016.81 1016.94 1017.06 1017.17 1017.24 1017.31 1017.38 1017.45 1017.57 1017.72 1017.73 1017.74 1017.72 1017.75 1017.63 1017.34 1017.12 1017.06 1017.30 1017.48 1017.53 1017.64
1014.89 1014.59 1014.99 1014.55 1014.97 1015.04 1014.99 1014.95 1015.01 1015.04 1015.17 1015.43 1015.51 1015.66 1015.83 1015.97 1016.19 1016.28 1016.42 1016.56 1016.68 1016.79 1016.96 1017.06 1017.17 1017.30 1017.40 1017.47 1017.57 1017.71 1017.84 1017.93 1018.02 1018.07 1017.96 1017.83 1017.42 1017.19 1017.18 1017.33 1017.44 1017.61 1017.76
1015.06 1015.10 1014.76 1014.68 1015.42 1015.39 1015.52 1014.94 1014.80 1015.23 1015.39 1015.67 1015.85 1015.86 1015.98 1016.17 1016.34 1016.50 1016.65 1016.78 1016.78 1016.85 1016.95 1017.05 1017.20 1017.36 1017.46 1017.55 1017.65 1017.79 1017.97 1018.11 1018.23 1018.18 1017.97 1017.92 1017.68 1017.33 1017.22 1017.38 1017.50 1017.58 1017.72
1015.42 1015.52 1015.45 1015.67 1015.88 1015.67 1015.70 1015.27 1015.17 1015.18 1015.68 1015.91 1016.08 1016.26 1016.40 1016.47 1016.61 1016.65 1016.77 1016.85 1016.91 1017.08 1017.11 1017.13 1017.21 1017.26 1017.39 1017.49 1017.68 1017.77 1017.96 1018.18 1018.35 1018.27 1018.16 1018.02 1017.81 1017.56 1017.48 1017.51 1017.66 1017.74 1017.76
1016.17 1015.99 1016.06 1016.54 1016.13 1015.77 1015.70 1015.59 1015.80 1016.00 1016.16 1016.18 1016.31 1016.51 1016.71 1016.87 1017.05 1017.16 1017.26 1017.26 1017.16 1017.23 1017.23 1017.31 1017.24 1017.40 1017.45 1017.50 1017.63 1017.77 1017.89 1018.21 1018.40 1018.29 1018.18 1018.00 1017.88 1017.69 1017.60 1017.61 1017.68 1017.80 1017.92
1016.54 1016.47 1015.98 1016.16 1016.48 1016.53 1016.52 1016.11 1016.38 1016.44 1016.69 1016.71 1016.57 1016.63 1016.89 1017.06 1017.23 1017.45 1017.48 1017.55 1017.47 1017.48 1017.49 1017.37 1017.34 1017.44 1017.64 1017.73 1017.79 1017.80 1017.99 1018.13 1018.36 1018.34 1018.14 1017.91 1017.81 1017.70 1017.71 1017.76 1017.74 1017.76 1017.87
1016.87 1016.87 1016.55 1016.27 1016.24 1016.49 1016.90 1016.84 1016.95 1017.02 1017.10 1017.02 1017.05 1016.91 1017.05 1017.24 1017.49 1017.63 1017.69 1017.79 1017.65 1017.69 1017.86 1017.67 1017.47 1017.70 1017.87 1017.88 1017.89 1017.89 1017.98 1018.19 1018.32 1018.24 1018.10 1017.87 1017.83 1017.71 1017.65 1017.77 1017.84 1017.90 1017.92
1017.05 1017.15 1016.92 1016.73 1016.60 1016.76 1016.89 1017.26 1017.58 1017.58 1017.66 1017.55 1017.65 1017.65 1017.40 1017.68 1017.98 1018.10 1018.13 1018.16 1018.11 1018.09 1018.23 1018.32 1017.97 1017.68 1018.17 1018.04 1018.02 1017.93 1017.95 1018.02 1018.26 1018.21 1018.05 1017.86 1017.74 1017.72 1017.59 1017.58 1017.71 1017.80 1017.85
1017.18 1017.34 1017.39 1017.37 1017.44 1017.10 1017.31 1017.61 1017.68 1018.09 1018.23 1018.27 1018.12 1018.19 1018.03 1018.20 1018.44 1018.44 1018.53 1018.48 1018.48 1018.34 1018.37 1018.16 1017.97 1018.20 1018.46 1018.52 1018.28 1018.36 1018.29 1018.13 1018.17 1018.07 1017.92 1017.92 1017.80 1017.79 1017.70 1017.58 1017.62 1017.61 1017.69
1017.15 1017.48 1017.71 1017.82 1017.90 1017.85 1017.81 1017.94 1018.20 1018.35 1018.55 1018.48 1018.64 1018.64 1018.60 1018.60 1018.76 1018.93 1019.04 1018.99 1018.82 1018.74 1018.48 1018.43 1018.45 1018.65 1018.82 1018.71 1018.64 1018.71 1018.69 1018.66 1018.50 1018.16 1017.91 1018.01 1017.98 1017.89 1017.81 1017.76 1017.72 1017.68 1017.66
1017.31 1017.50 1017.89 1018.11 1018.21 1018.27 1018.37 1018.45 1018.42 1018.51 1018.72 1018.93 1018.88 1018.86 1018.80 1018.90 1019.07 1019.22 1019.31 1019.33 1019.24 1018.93 1018.72 1018.66 1018.67 1018.74 1018.88 1018.95 1019.18 1018.95 1018.81 1018.71 1018.57 1018.39 1018.33 1018.24 1018.17 1017.99 1018.00 1017.92 1017.80 1017.70 1017.65
1017.63 1017.80 1018.06 1018.18 1018.49 1018.68 1018.80 1019.03 1019.04 1018.88 1018.88 1019.21 1019.19 1019.22 1019.15 1019.14 1019.22 1019.35 1019.49 1019.57 1019.43 1019.22 1019.12 1019.10 1019.15 1019.21 1019.32 1019.43 1019.40 1019.05 1018.92 1018.73 1018.55 1018.46 1018.40 1018.33 1018.36 1018.18 1018.16 1018.02 1017.86 1017.62 1017.34
1017.87 1018.18 1018.30 1018.54 1018.73 1019.04 1019.21 1019.33 1019.66 1019.56 1019.58 1019.51 1019.64 1019.58 1019.48 1019.33 1019.42 1019.59 1019.69 1019.75 1019.60 1019.66 1019.71 1019.70 1019.62 1019.65 1019.65 1019.56 1019.42 1019.21 1018.99 1018.85 1018.45 1018.30 1018.35 1018.09 1018.18 1018.05 1018.19 1018.02 1017.79 1017.50 1017.40
1017.95 1018.19 1018.50 1018.67 1019.03 1019.25 1019.51 1019.83 1019.89 1020.01 1020.15 1020.04 1020.08 1019.98 1019.90 1019.85 1019.74 1019.82 1019.97 1019.92 1019.81 1019.82 1019.96 1019.97 1019.97 1019.84 1019.71 1019.61 1019.50 1019.19 1018.80 1018.64 1018.45 1018.46 1018.34 1017.96 1018.04 1018.03 1017.96 1017.85 1017.83 1017.45 1017.31
1018.33 1018.42 1018.59 1018.80 1019.00 1019.13 1019.82 1020.33 1020.50 1020.61 1020.66 1020.64 1020.52 1020.37 1020.31 1020.26 1020.12 1020.16 1020.26 1020.20 1020.19 1020.33 1020.36 1020.28 1020.14 1020.14 1019.92 1019.67 1019.70 1019.28 1018.75 1018.63 1018.58 1018.50 1018.19 1018.11 1017.97 1017.90 1017.99 1017.91 1017.66 1017.62 1017.38
1017.90 1018.35 1018.74 1019.04 1019.22 1019.35 1019.44 1019.96 1020.34 1020.69 1020.90 1020.81 1020.81 1020.79 1020.68 1020.55 1020.50 1020.48 1020.62 1020.64 1020.60 1020.66 1020.62 1020.56 1020.57 1020.72 1020.60 1020.29 1020.50 1020.22 1019.84 1019.16 1018.72 1018.51 1018.38 1018.33 1018.11 1018.06 1017.91 1017.84 1017.46 1017.56 1017.43
1017.97 1018.29 1018.61 1018.97 1019.45 1019.63 1019.78 1019.94 1020.38 1020.82 1021.03 1021.26 1021.20 1021.17 1021.09 1020.77 1020.74 1020.65 1020.80 1020.89 1020.91 1020.97 1021.01 1021.00 1020.95 1020.89 1021.09 1020.75 1020.62 1020.69 1020.54 1020.38 1019.71 1018.68 1018.45 1018.42 1018.17 1017.94 1017.90 1017.80 1017.44 1017.42 1017.52
1017.86 1018.30 1018.68 1019.08 1019.45 1019.83 1020.06 1020.23 1020.46 1020.88 1021.47 1021.72 1021.78 1021.75 1021.42 1021.18 1021.17 1021.11 1021.09 1021.02 1021.17 1021.33 1021.34 1021.37 1021.29 1021.36 1021.39 1021.49 1020.92 1020.68 1020.68 1020.76 1020.27 1019.40 1018.61 1018.24 1018.14 1018.11 1017.97 1017.91 1017.64 1017.37 1017.44
1017.85 1018.49 1018.97 1019.26 1019.69 1019.96 1020.26 1020.54 1020.88 1021.26 1021.60 1021.88 1022.01 1022.01 1021.94 1021.70 1021.51 1021.41 1021.42 1021.51 1021.51 1021.49 1021.54 1021.61 1021.51 1021.52 1021.48 1021.55 1021.47 1021.32 1020.73 1020.45 1020.21 1020.08 1019.01 1018.77 1018.41 1017.98 1017.98 1017.87 1017.60 1017.52 1017.37
1018.16 1018.79 1019.35 1019.70 1020.16 1020.40 1020.58 1020.89 1021.17 1021.50 1021.89 1022.17 1022.37 1022.45 1022.32 1022.19 1021.99 1021.81 1021.79 1021.86 1021.86 1021.84 1021.78 1021.62 1021.46 1021.53 1021.43 1021.30 1021.35 1021.24 1021.07 1021.01 1020.62 1020.30 1019.56 1019.17 1018.90 1018.20 1018.00 1017.83 1017.75 1017.40 1017.38
Thickness
5709 5711 5711 5711 5712 5711 5711 5711 5710 5710 5709 5708 5707 5706 5705 5705 5704 5704 5703 5703 5703 5702 5702 5702 5701 5702 5702 5702 5702 5703 5703 5703 5704 5704 5705 5706 5706 5707 5707 5708 5709 5710 5710
5711 5709 5706 5706 5707 5707 5706 5706 5707 5707 5706 5704 5703 5701 5702 5702 5701 5701 5701 5700 5699 5699 5698 5698 5697 5698 5698 5697 5698 5698 5699 5698 5699 5699 5701 5702 5703 5704 5704 5704 5706 5707 5706
5704 5702 5703 5701 5701 5701 5702 5702 5702 5702 5701 5700 5699 5699 5698 5698 5699 5698 5698 5696 5696 5695 5695 5694 5693 5693 5693 5693 5693 5694 5694 5694 5695 5696 5696 5698 5699 5700 5701 5701 5701 5702 5702
5692 5693 5695 5696 5697 5695 5696 5697 5698 5697 5695 5695 5694 5694 5695 5695 5695 5695 5694 5692 5692 5691 5691 5690 5690 5689 5689 5689 5689 5690 5690 5691 5693 5694 5693 5693 5694 5695 5696 5696 5698 5698 5698
5682 5683 5686 5688 5690 5690 5689 5690 5691 5691 5691 5690 5689 5690 5691 5691 5690 5690 5689 5689 5687 5686 5687 5687 5686 5687 5686 5686 5686 5685 5685 5686 5689 5691 5690 5689 5690 5691 5692 5692 5693 5693 5693
5673 5674 5674 5676 5680 5684 5684 5682 5683 5684 5685 5686 5686 5685 5686 5686 5685 5685 5684 5685 5684 5683 5683 5682 5682 5683 5684 5683 5683 5681 5681 5683 5685 5685 5686 5686 5687 5688 5689 5688 5688 5688 5688
5665 5666 5666 5666 5668 5668 5672 5676 5678 5678 5679 5680 5681 5681 5681 5681 5681 5680 5680 5680 5679 5678 5678 5678 5678 5678 5679 5679 5679 5678 5676 5677 5679 5680 5680 5681 5684 5685 5686 5685 5684 5684 5684
5651 5649 5649 5656 5656 5658 5660 5665 5668 5672 5674 5673 5674 5675 5676 5676 5675 5675 5674 5674 5673 5672 5672 5672 5672 5672 5673 5673 5674 5674 5673 5673 5673 5674 5675 5677 5680 5682 5682 5682 5682 5681 5680
5646 5647 5632 5648 5642 5648 5645 5657 5665 5665 5667 5666 5666 5668 5669 5669 5668 5667 5666 5665 5665 5665 5665 5665 5665 5665 5667 5668 5669 5669 5669 5668 5669 5670 5671 5673 5675 5678 5679 5678 5678 5678 5677
5644 5644 5645 5642 5644 5645 5640 5652 5658 5661 5660 5660 5660 5660 5660 5661 5660 5661 5660 5659 5659 5658 5658 5659 5659 5659 5660 5663 5664 5665 5664 5663 5663 5665 5666 5668 5670 5672 5674 5674 5673 5673 5673
5637 5639 5641 5635 5637 5643 5644 5649 5650 5652 5652 5654 5654 5653 5653 5653 5652 5651 5651 5651 5652 5652 5652 5651 5653 5653 5654 5657 5658 5659 5660 5659 5658 5660 5662 5663 5664 5666 5669 5670 5669 5668 5668
5634 5634 5640 5638 5635 5635 5634 5640 5642 5643 5644 5645 5647 5648 5647 5646 5644 5643 5644 5643 5645 5644 5644 5645 5646 5646 5648 5650 5652 5654 5655 5654 5653 5655 5657 5659 5660 5661 5663 5664 5665 5665 5663
5629 5629 5633 5636 5636 5634 5631 5633 5633 5634 5636 5639 5639 5640 5639 5639 5638 5637 5639 5639 5639 5639 5637 5637 5639 5639 5640 5643 5646 5648 5650 5649 5649 5650 5652 5654 5655 5656 5658 5658 5659 5659 5659
5627 5626 5628 5629 5630 5630 5629 5627 5626 5626 5626 5630 5630 5629 5629 5632 5631 5630 5631 5632 5632 5632 5631 5628 5629 5633 5632 5637 5639 5642 5644 5645 5645 5645 5647 5649 5650 5651 5652 5653 5653 5653 5654
5624 5622 5621 5621 5621 5624 5623 5620 5621 5619 5618 5618 5620 5620 5623 5624 5623 5624 5624 5625 5625 5625 5625 5625 5626 5627 5628 5629 5633 5634 5635 5638 5639 5641 5642 5643 5645 5645 5646 5647 5647 5648 5648
5623 5618 5614 5613 5613 5614 5615 5614 5612 5611 5611 5612 5612 5612 5613 5615 5615 5615 5615 5616 5619 5619 5620 5621 5622 5622 5623 5625 5627 5626 5628 5629 5631 5635 5637 5636 5637 5639 5640 5640 5640 5640 5641
5617 5614 5609 5606 5605 5605 5605 5605 5606 5605 5604 5603 5605 5605 5607 5607 5607 5608 5608 5609 5611 5614 5616 5617 5618 5618 5619 5619 5618 5620 5622 5623 5625 5628 5629 5629 5629 5632 5633 5633 5634 5635 5636
5608 5607 5604 5603 5599 5597 5596 5595 5596 5598 5599 5597 5597 5598 5599 5601 5601 5601 5602 5602 5604 5607 5609 5610 5610 5611 5610 5609 5611 5615 5616 5618 5620 5621 5622 5623 5622 5625 5625 5627 5630 5631 5634
5599 5596 5596 5594 5593 5590 5588 5588 5586 5587 5589 5590 5589 5590 5592 5594 5595 5595 5596 5596 5598 5599 5599 5600 5602 5602 5603 5605 5607 5609 5612 5613 5616 5617 5616 5620 5618 5621 5620 5622 5624 5627 5628
5593 5591 5588 5588 5585 5584 5582 5580 5580 5579 5579 5581 5581 5583 5585 5586 5588 5589 5589 5590 5592 5592 5592 5592 5593 5596 5598 5600 5601 5604 5607 5609 5611 5611 5611 5614 5613 5614 5614 5616 5616 5620 5621
5584 5584 5583 5582 5581 5580 5575 5571 5571 5571 5571 5572 5573 5575 5577 5578 5580 5581 5582 5584 5584 5584 5585 5586 5588 5588 5591 5593 5593 5597 5601 5601 5602 5602 5604 5606 5607 5607 5606 5607 5610 5610 5613
5583 5579 5576 5573 5573 5574 5574 5569 5567 5565 5565 5567 5567 5567 5568 5570 5572 5573 5573 5574 5575 5576 5577 5578 5579 5578 5579 5582 5580 5582 5584 5591 5594 5595 5595 5595 5596 5595 5597 5598 5603 5601 5602
5575 5571 5570 5568 5565 5564 5565 5565 5562 5558 5558 5557 5558 5559 5560 5562 5563 5565 5565 5566 5566 5566 5566 5567 5568 5569 5568 5570 5572 5571 5572 5572 5576 5585 5587 5586 5587 5589 5588 5589 5592 5592 5591
5564 5563 5561 5560 5558 5556 5555 5555 5555 5552 5548 5547 5547 5548 5551 5553 5554 5555 5556 5557 5557 5556 5556 5556 5557 5557 5557 5556 5560 5564 5563 5562 5566 5572 5576 5579 5579 5579 5579 5579 5581 5582 5581
5556 5553 5550 5550 5547 5546 5545 5544 5543 5541 5539 5537 5538 5539 5540 5542 5544 5545 5546 5545 5546 5546 5546 5545 5547 5547 5548 5548 5548 5548 5552 5554 5556 5558 5568 5564 5567 5570 5569 5569 5570 5571 5570
5545 5541 5537 5536 5533 5532 5532 5532 5531 5531 5529 5527 5527 5527 5528 5530 5532 5533 5533 5534 5534 5535 5536 5537 5538 5538 5538 5539 5539 5539 5541 5539 5541 5544 5551 5553 5553 5557 5557 5558 5558 5559 5559